Regional Weather Roundup
Issued by NWS Boston, MA

Home | Current Version | Previous Version | Text Only | Print | Product List | Glossary On
Versions: 1 2 3 4 5 6 7 8 9 10 11 12 13 14 15 16 17 18 19 20 21 22 23 24 25 26 27 28 29 30 31 32 33 34 35 36 37 38 39 40 41 42 43 44 45 46 47 48 49 50
000
ASUS41 KBOX 251510
RWRBOX

REGIONAL WEATHER ROUNDUP
NATIONAL WEATHER SERVICE TAUNTON MA
1100 AM EDT WED MAY 25 2016

NOTE:  "FAIR" INDICATES FEW OR NO CLOUDS BELOW 12,000 FEET WITH NO
SIGNIFICANT WEATHER AND/OR OBSTRUCTIONS TO VISIBILITY.  THE FOLLOWING
OBSERVATION LOCATIONS DO NOT REPORT PRESENT WEATHER...PROVINCETOWN...
SMITHFIELD...BLOCK ISLAND...KEENE...AND OXFORD.

MAZALL-251600-
EASTERN MASSACHUSETTS

CITY           SKY/WX    TMP DP  RH WIND       PRES   REMARKS
BOSTON         SUNNY     67  58  72 SE3       30.00S
BEVERLY        SUNNY     69  57  65 SW9       29.99S
LAWRENCE       SUNNY     68  58  70 SW6       30.00F
BEDFORD        SUNNY     73  57  57 VRB5      29.98F
BLUE HILL        N/A     69  57  65 S6        30.00S
NORWOOD        SUNNY     73  58  59 VRB3      29.99F
MARSHFIELD     SUNNY     64  59  82 VRB7      30.00S
PLYMOUTH       SUNNY     71  58  63 W8        30.01S
TAUNTON        SUNNY     74  58  57 MISG      30.00S
NEW BEDFORD    SUNNY     71  60  68 SW8       30.00F
$$

MAZALL-251600-
CAPE COD AND THE ISLANDS

CITY           SKY/WX    TMP DP  RH WIND       PRES   REMARKS
FALMOUTH       SUNNY     68  57  68 SW14G21   30.03R
HYANNIS        SUNNY     62  56  80 S9        30.02R
CHATHAM        SUNNY     61  56  83 VRB6      30.04S
PROVINCETOWN   SUNNY     62  56  80 S6        30.03S
NANTUCKET      SUNNY     61  55  81 S8        30.05R
MARTHAS VNYRD  SUNNY     63  56  78 SW12      30.04R
$$

MAZALL-251600-
CENTRAL AND WESTERN MASSACHUSETTS

CITY           SKY/WX    TMP DP  RH WIND       PRES   REMARKS
WORCESTER      SUNNY     73  49  42 W9G20     30.02S
FITCHBURG      SUNNY     78  50  37 NW9       30.00S
ORANGE         SUNNY     73  57  57 CALM      30.01S
SPRINGFIELD    NOT AVBL
WESTFIELD      SUNNY     79  46  31 W10       30.01S
NORTH ADAMS    SUNNY     73  49  42 NW6       30.04S
PITTSFIELD     SUNNY     72  44  36 W12G20    30.06R
$$

RIZALL-251600-
RHODE ISLAND

CITY           SKY/WX    TMP DP  RH WIND       PRES   REMARKS
PROVIDENCE     SUNNY     71  58  63 SE8       30.01F
NEWPORT        SUNNY     65  58  78 VRB5      30.02S
BLOCK ISLAND   SUNNY     64  57  78 W13       30.04S
SMITHFIELD       N/A    N/A N/A N/A MISG        N/A
WESTERLY       SUNNY     66  54  65 SW8       30.04R
$$

CTZALL-251600-
CONNECTICUT

CITY           SKY/WX    TMP DP  RH WIND       PRES   REMARKS
BRADLEY INTL   MOSUNNY   80  51  36 NW7       30.00F
HARTFORD       SUNNY     79  54  41 VRB3      30.01F
BRIDGEPORT     SUNNY     70  54  56 SW12      30.05R
DANBURY        SUNNY     75  55  49 SW7       30.07S
GROTON         SUNNY     61  58  90 SW10      30.03S
NEW HAVEN      SUNNY     68  58  70 S7        30.04S
CHESTER          N/A     77  50  38 VRB6G16   30.04S
MERIDEN        SUNNY     78  52  40 W7        30.03S
WILLIMANTIC    SUNNY     79  48  33 VRB7      30.02S
OXFORD         MOSUNNY   72  54  53 NW7       30.07S
$$

MEZ002-015-021-024-NHZ003-005-008-011-012-014-VTZ005-008-251600-
NORTHERN NEW ENGLAND

CITY           SKY/WX    TMP DP  RH WIND       PRES   REMARKS
PORTLAND ME    CLOUDY    58  54  86 SE7       29.98S
BANGOR ME      MOSUNNY   69  56  62 S8        29.94F
CONCORD NH     SUNNY     71  55  56 CALM      29.98F
MANCHESTER NH  MOSUNNY   71  56  58 S3        29.97F
NASHUA NH      SUNNY     72  59  63 E5        29.99F
PORTSMOUTH NH  MOSUNNY   65  58  78 VRB3      29.98F
JAFFREY NH     SUNNY     74  47  38 W7        30.01S
KEENE NH       SUNNY     70  55  60 CALM      30.02S
BURLINGTON VT  PTSUNNY   75  51  43 S13       29.96S
MT. WASHINGTON PTSUNNY   52  39  62 W25G38      N/A
$$

NYZ052-076-251600-
EASTERN NEW YORK

CITY           SKY/WX    TMP DP  RH WIND       PRES   REMARKS
ALBANY         MOSUNNY   75  52  44 S7        30.03F
NEW YORK CITY  MOSUNNY   79  51  37 NW10      30.06F
$$

ANZALL-251600-
MARINE OBSERVATIONS

STATION/POSITION TIME  TEMP    WIND        PRES    VSBY  WAVE
                       AIR SEA DIR/SP/G                  HT/PER
                 (UTC) (F)     (DEG/KT/KT) (MB)    (MI)  (FT/S)
BOSTON BUOY      1450   53 54  130/  8/ 10 1015.9R         2/ 8
BUZZARDS BAY     1400   53     220/  8/  9 1017.5R
NANTUCKET SOUND  1450   56 55  180/  4/  6 1017.0F         1
MASS BAY-STELLWA 1404   52 53                N/A     1/2   3/ 8
ISLE OF SHOALS   1500   53     160/ 11/ 12 1015.5S
S OF BLOCK IS    1425      53                N/A           3/ 8
$$

......................KEY.........................
  SKY/WX - SKY CONDITION/PRESENT WEATHER
  TMP    - TEMPERATURE IN FAHRENHEIT
  DWPT   - DEWPOINT IN FAHRENHEIT
  RH     - RELATIVE HUMIDITY IN PERCENT
  WIND   - DIRECTION AND SPEED IN MPH
  PRES   - MEAN SEA LEVEL PRESSURE IN INCHES OF HG
  WCI    - WIND CHILL INDEX
  VSB    - VISIBILITY IN MILES
  HX     - HEAT INDEX
  TC     - TEMPERATURE IN CELSIUS
  VRB    - VARIABLE WIND DIRECTION
  N/A    - NOT AVAILABLE



USA.gov is the U.S. government's official web portal to all federal, state and local government web resources and services.